User: anonymous   Login
Location: Caltech
(34.1382°N, 118.1253°W)
Time: 13:02:49
(UTC-08:00)
Language:

RS-15 - Orbit

View from above orbital plane
View from above orbital plane
View from above satellite
View from above satellite

Ground track
Ground track

The orbit data is extracted from the following two-line orbital elements,

1 23439U 94085A   17049.88033927 -.00000036 +00000-0 +18443-3 0  9991
2 23439 064.8164 050.5196 0168161 266.0464 173.3082 11.27566093912072
Epoch (UTC): 18 February 2017 21:07:41
Eccentricity: 0.0168161
inclination: 64.8164°
perigee height: 1881 km
apogee height: 2163 km
right ascension of ascending node: 50.5196°
argument of perigee: 266.0464°
revolutions per day: 11.27566093
mean anomaly at epoch: 173.3082°
orbit number at epoch: 91207

The dashed part of the orbit path shows where the satellite is in the earth's shadow,  

DLR